Theta_e
315 315 315 313 313 313 313 313 312 312 313 314 315 317 317 318 317 315 306 312 316 332 334 326 325 324 319 317 321 322 311 308 310 310 312 317 315 319 321 319 320 322 321 325 327
313 313 313 314 314 314 313 314 313 313 312 312 313 314 315 316 313 310 321 321 328 331 314 319 317 319 318 318 320 317 311 311 315 316 315 316 316 317 316 317 317 320 324 326 327
313 313 313 313 313 313 313 314 314 314 313 312 312 314 314 316 306 306 326 330 325 327 311 317 316 315 313 317 318 317 311 316 316 318 318 316 316 319 316 314 317 318 321 324 325
312 312 313 313 312 312 312 312 313 313 313 313 312 312 314 312 296 317 320 324 330 324 313 312 314 309 309 309 316 312 316 317 317 318 317 316 319 316 317 317 321 322 323 323 323
311 311 312 312 312 312 311 311 312 312 312 313 312 311 311 304 303 314 323 322 314 319 311 311 311 311 308 311 312 312 315 317 318 318 318 318 316 316 316 320 322 322 322 322 323
310 311 311 312 312 311 312 312 313 312 312 312 312 312 307 296 310 313 313 313 311 315 315 313 310 313 313 312 311 313 313 314 316 316 317 314 314 315 316 318 320 320 319 320 320
311 311 311 311 312 312 312 312 312 312 312 313 313 310 304 300 310 312 311 310 312 309 310 314 313 312 314 310 315 312 308 311 312 314 312 315 310 311 316 317 317 317 318 319 321
311 311 311 311 311 312 312 312 312 312 313 313 313 309 299 308 312 309 311 310 312 312 309 311 313 311 311 313 310 307 308 303 311 312 313 312 305 312 316 315 315 315 316 317 320
310 311 311 311 311 311 312 311 311 311 312 313 309 305 297 310 304 308 310 306 309 311 311 309 308 307 307 303 301 305 299 303 305 312 310 307 304 311 316 315 314 315 316 317 319
311 311 311 311 311 311 311 311 311 310 310 311 308 299 301 297 304 308 310 310 306 306 306 304 303 301 302 301 295 299 301 302 303 309 307 306 305 311 314 313 313 314 315 316 318
311 311 311 311 310 310 309 308 303 302 304 299 298 299 299 303 306 303 306 307 306 304 298 302 297 296 300 302 303 303 303 302 306 309 307 306 306 310 314 312 312 314 315 316 318
310 310 310 311 311 310 308 301 301 302 294 301 300 300 302 303 296 301 306 300 301 296 300 299 294 301 303 304 302 301 300 301 305 308 307 306 305 309 311 312 313 314 315 316 319
310 310 310 310 310 309 304 303 308 308 294 296 300 299 301 303 297 299 301 300 298 296 297 296 298 302 301 300 299 300 299 300 300 304 307 304 301 305 310 313 314 315 316 318 318
310 310 310 309 305 306 302 307 309 308 289 290 295 300 302 302 297 305 306 300 298 295 297 297 302 300 299 298 300 297 302 301 300 299 295 304 295 303 308 309 311 313 315 316 318
310 309 309 307 305 300 304 309 309 305 277 291 297 306 301 298 299 300 307 301 294 296 297 295 297 298 298 299 302 299 302 300 300 298 298 299 296 301 306 305 308 312 315 317 319
310 309 308 307 306 305 308 308 305 286 277 288 295 293 294 296 296 300 299 304 301 294 297 297 303 300 300 302 302 303 300 300 301 299 292 298 297 298 302 306 309 313 314 316 320
309 307 307 307 302 308 308 302 286 279 289 286 289 292 291 291 292 294 294 295 293 288 288 296 296 300 302 299 302 301 298 292 291 292 291 300 298 300 307 310 311 311 314 319 322
308 306 304 309 308 308 303 293 277 284 284 291 290 290 287 290 290 291 291 291 297 294 291 288 288 297 301 299 298 298 299 294 287 290 293 301 295 301 308 311 313 313 315 318 321
305 310 308 308 310 308 297 284 283 286 289 288 289 285 286 288 289 289 289 287 294 297 290 290 291 300 300 301 303 299 297 303 297 298 295 299 302 307 309 309 313 314 314 318 322
304 304 304 310 309 302 292 284 287 291 291 290 284 286 284 286 286 287 287 289 288 294 299 296 291 299 299 302 303 302 304 296 297 291 289 295 298 301 305 307 310 314 316 320 323
304 298 305 311 309 297 286 287 290 293 293 289 287 286 287 286 287 287 286 290 290 293 297 297 295 296 298 297 297 299 299 300 301 298 292 292 296 306 307 311 312 315 319 320 322
301 294 305 309 294 293 289 289 292 292 294 292 292 289 287 288 287 287 286 290 294 293 290 297 296 292 296 300 304 303 301 301 295 294 297 296 296 310 311 314 315 315 318 321 323
296 296 306 305 287 286 289 289 292 290 291 291 289 291 292 289 285 288 289 294 294 293 290 294 293 291 293 297 301 299 300 303 302 302 296 292 294 309 312 313 314 317 319 321 322
297 292 297 300 296 288 286 288 288 292 291 292 291 293 290 289 291 288 289 292 293 294 295 296 294 294 290 294 298 296 298 301 301 296 297 296 299 305 310 312 315 317 319 321 322
298 293 293 289 290 290 289 287 286 286 292 293 290 289 288 285 288 287 289 290 292 294 295 295 292 294 295 295 296 298 297 299 298 300 296 298 299 304 310 311 312 316 319 320 321
293 290 292 291 291 289 289 288 287 288 288 289 288 291 291 288 289 287 289 289 290 294 293 296 292 295 292 296 296 295 298 299 299 300 300 300 300 308 310 310 311 314 316 319 321
299 302 293 290 289 287 288 288 288 290 291 292 291 290 290 291 295 296 296 296 294 292 292 292 291 292 289 296 294 292 297 298 299 301 301 297 303 307 307 308 311 314 317 319 321
Wind_Speed
18 16 14 11 12 13 13 14 15 16 14 15 16 16 17 20 21 13 13 6 6 14 5 7 11 11 12 13 15 15 12 14 18 19 15 7 11 4 4 11 12 15 14 14 14
16 16 16 16 16 15 13 13 13 14 15 15 15 15 15 18 18 15 7 7 12 13 11 15 16 15 14 17 12 16 15 21 19 18 18 17 13 15 11 17 20 19 19 13 13
16 16 17 18 18 17 17 16 15 14 14 14 16 16 16 19 10 9 10 2 17 14 21 18 18 17 21 19 21 21 24 21 22 22 20 23 21 20 20 20 23 22 20 19 19
15 15 16 16 17 17 17 17 16 16 14 13 13 14 15 9 11 9 8 9 9 17 20 21 20 22 21 27 23 30 30 27 25 26 23 22 25 23 24 20 25 24 22 23 22
15 15 15 15 15 16 17 18 18 16 15 13 12 12 11 10 15 4 13 7 7 11 22 27 27 24 29 24 26 36 27 27 23 23 25 22 26 28 28 22 27 22 21 20 19
15 15 16 16 16 16 16 16 16 16 17 14 11 9 13 18 7 9 12 13 11 8 14 22 16 23 24 28 31 26 27 30 25 24 23 25 27 29 26 21 28 22 21 20 20
15 16 16 16 17 16 16 16 16 18 19 17 14 9 15 22 11 9 16 16 9 13 14 17 24 14 16 23 26 25 28 28 21 23 25 22 28 30 25 23 26 21 19 18 17
16 16 18 18 18 18 18 19 20 21 23 18 13 10 11 10 11 16 17 18 17 16 13 13 14 22 20 13 15 21 25 27 24 21 18 17 32 23 18 19 19 17 16 18 18
17 16 18 19 19 20 19 20 24 18 10 7 8 9 12 6 10 13 14 15 14 17 16 11 15 20 15 24 20 26 25 29 26 23 23 25 34 28 22 16 13 16 19 18 19
17 18 18 19 19 20 22 24 13 7 7 7 5 7 9 11 2 5 10 10 11 13 15 19 14 16 21 21 30 26 25 25 28 20 17 26 32 24 20 21 20 18 19 20 20
21 19 18 18 18 18 17 9 5 9 9 13 9 15 19 14 10 13 6 7 10 18 24 24 21 30 41 32 25 23 25 30 25 23 23 26 27 27 23 16 23 22 20 22 22
22 22 20 18 19 18 10 8 4 6 14 16 23 22 24 21 14 18 15 11 12 21 25 21 31 45 28 28 29 27 27 30 25 20 22 24 27 28 24 23 23 25 23 22 20
19 19 19 18 18 8 10 8 4 9 8 16 8 8 4 8 13 17 17 20 19 19 29 34 42 26 30 28 33 33 31 25 24 19 20 21 27 28 25 27 27 24 21 19 20
20 19 18 17 12 7 8 3 7 7 7 7 7 5 7 4 6 13 11 21 19 23 24 31 31 25 33 34 31 31 26 24 22 20 23 20 25 25 22 24 22 23 21 22 17
19 20 17 9 10 6 6 7 8 4 8 7 6 5 7 6 8 2 4 13 26 21 16 31 24 35 31 38 27 26 16 20 21 20 22 24 21 18 21 25 22 20 20 18 14
20 19 15 7 4 8 8 7 6 7 10 2 1 5 9 4 4 7 5 14 13 26 27 27 15 19 37 21 25 22 13 19 19 16 20 20 21 18 22 24 21 15 12 11 7
23 21 7 3 4 8 6 6 7 9 6 3 6 10 16 16 1 10 9 10 12 17 28 24 27 25 21 29 24 23 23 10 13 14 13 16 16 21 21 18 18 17 10 6 7
22 17 4 3 4 6 4 5 5 7 8 16 12 18 19 14 5 6 13 9 17 23 19 23 24 31 24 30 21 28 26 12 17 14 12 20 11 14 9 14 16 16 11 3 7
22 2 3 7 5 4 6 5 7 11 9 13 17 16 15 6 4 6 4 5 10 14 21 22 30 26 25 24 27 32 29 23 10 6 8 10 12 15 19 16 10 9 12 7 10
6 4 8 7 4 2 4 4 6 9 13 14 15 7 12 11 11 9 1 4 10 15 12 10 13 26 34 26 28 30 23 22 13 16 12 8 13 7 1 9 11 9 9 11 13
4 4 6 3 1 2 4 8 13 11 12 9 13 14 13 12 8 6 2 6 3 12 13 14 9 18 28 24 28 18 23 23 14 10 12 5 6 6 10 5 9 7 10 15 16
4 3 5 4 3 2 5 9 12 12 11 10 8 8 7 9 11 5 5 6 5 5 9 4 8 12 26 26 22 23 20 23 16 19 8 6 3 2 3 1 1 4 11 16 16
6 3 2 7 4 5 9 15 14 14 13 10 10 8 14 14 7 5 4 6 5 4 4 5 11 11 20 25 21 28 22 26 15 10 18 11 3 8 3 1 3 9 14 16 17
6 4 2 2 2 7 11 9 11 8 11 9 12 11 12 10 8 8 8 5 2 9 6 6 11 14 8 22 16 26 28 26 21 11 14 17 12 8 7 10 9 10 12 15 16
4 5 4 6 6 11 10 9 12 9 6 12 6 5 10 8 16 1 4 6 3 6 5 6 16 16 8 5 6 13 27 24 26 19 15 14 18 13 11 6 6 5 11 15 16
4 4 4 9 11 12 8 8 14 11 7 13 11 17 17 15 13 17 12 7 4 5 4 7 8 11 14 9 5 7 22 22 22 21 17 11 14 13 10 8 3 1 7 15 16
0 2 3 8 6 8 7 12 16 14 7 9 12 14 16 12 11 15 13 14 15 15 13 5 6 10 16 14 4 7 15 19 20 23 19 19 14 6 5 5 5 6 2 14 16
Wind_Direction
358 357 353 353 346 347 345 340 333 335 335 332 328 334 330 324 309 262 253 234 194 168 220 183 197 206 209 223 226 240 240 247 253 263 270 251 270 130 315 269 279 289 279 303 308
355 349 347 349 350 345 338 329 332 332 329 328 327 322 321 318 301 273 241 222 198 178 214 207 196 202 210 225 215 222 235 248 262 272 266 281 261 281 280 268 275 275 265 265 256
349 346 343 345 342 339 336 332 326 325 326 324 322 321 321 310 281 247 59 230 225 210 230 230 244 209 222 231 222 231 247 263 260 262 261 275 272 274 274 274 272 287 303 293 288
347 346 343 340 334 332 327 326 322 320 318 311 316 317 318 297 254 95 52 343 260 207 219 214 222 219 233 228 228 243 251 258 264 266 259 258 273 277 272 278 277 286 291 291 289
343 341 337 333 330 324 320 316 317 317 307 306 306 309 297 234 247 125 334 330 315 178 204 202 209 216 228 238 242 245 253 269 252 258 267 275 269 272 276 281 277 281 285 280 279
339 338 333 329 325 321 316 310 307 301 299 293 287 282 260 254 322 291 294 293 277 233 214 213 223 222 242 238 246 252 259 254 261 256 260 262 265 268 268 274 278 279 280 285 288
338 336 333 328 322 317 312 308 304 295 291 280 266 248 262 253 275 283 283 283 284 271 230 218 218 221 220 246 254 257 255 260 240 253 253 261 270 256 265 262 267 274 280 283 285
341 335 333 331 326 320 314 307 298 294 288 271 249 232 255 259 269 258 266 263 243 245 255 258 221 237 242 260 267 250 246 249 235 229 240 230 261 262 270 265 267 274 281 289 286
333 330 332 330 329 323 313 301 298 294 282 230 203 216 269 123 231 249 242 248 249 224 231 246 229 224 216 230 247 230 239 238 245 243 240 231 254 251 257 257 265 271 283 288 291
329 331 329 328 327 326 318 299 294 247 204 189 244 214 235 236 203 243 274 232 237 224 206 213 213 217 222 211 225 228 231 242 259 229 221 237 247 261 261 267 278 278 282 285 291
335 332 328 327 327 324 315 296 242 198 217 264 259 243 287 276 302 261 256 218 211 225 204 195 204 216 215 217 234 246 243 245 244 241 245 246 262 269 266 267 268 274 280 280 285
336 333 331 327 325 323 288 342 19 351 296 274 259 261 266 276 274 267 269 232 194 218 210 187 216 222 219 220 224 235 241 245 251 249 256 268 265 273 268 265 272 275 274 278 276
330 328 327 324 315 279 325 299 339 327 266 294 272 264 255 223 236 255 218 224 233 226 212 215 223 219 218 221 222 223 232 240 252 263 261 258 265 267 265 260 259 264 262 262 264
330 328 327 330 277 348 294 152 304 323 278 232 190 185 192 230 230 238 237 227 218 234 226 232 232 218 223 226 216 227 221 243 254 252 253 246 269 266 272 270 264 266 265 264 266
326 323 322 320 303 286 354 306 313 242 274 110 144 81 262 241 344 94 172 231 238 218 220 223 221 232 224 225 215 233 228 229 238 250 263 255 261 272 268 265 263 258 254 251 251
322 324 324 277 236 267 293 297 258 236 247 178 113 323 297 167 340 317 283 218 259 239 244 242 231 232 232 223 218 215 208 221 233 243 248 252 253 263 260 262 263 262 258 223 179
324 326 304 317 336 335 302 260 233 251 44 20 326 325 307 288 321 313 293 270 220 215 227 227 239 250 238 208 200 188 190 194 216 220 247 241 243 253 269 262 256 258 242 149 161
327 318 133 333 310 309 249 234 273 308 298 332 318 304 287 291 311 296 294 300 257 239 227 222 228 220 212 216 190 194 185 203 211 223 234 215 241 245 275 265 254 243 226 163 160
311 163 26 17 357 233 259 257 332 349 336 312 304 275 270 214 256 291 328 28 305 257 242 211 232 190 224 214 197 188 211 207 248 269 240 181 237 263 262 257 253 227 212 183 158
320 268 55 52 353 333 273 299 309 317 306 303 299 298 297 305 304 273 139 97 326 330 297 281 260 225 195 206 207 195 192 201 206 216 216 201 251 248 331 218 214 198 180 163 154
293 252 65 13 183 235 304 336 320 322 323 309 307 305 302 290 287 308 189 115 264 313 297 278 260 220 186 201 187 190 198 211 202 236 199 230 225 235 260 186 208 219 154 162 156
317 283 46 302 255 218 305 340 311 300 312 294 291 293 292 307 296 284 254 144 202 298 294 216 286 266 204 203 210 200 197 196 196 191 229 220 223 276 224 269 300 158 152 151 154
331 298 96 282 11 344 318 303 283 295 316 316 302 296 312 296 293 288 307 168 177 261 328 345 237 228 196 194 210 206 204 197 215 190 205 199 246 202 111 166 135 139 148 152 153
303 321 108 355 351 317 334 309 321 305 302 295 303 308 326 317 265 273 344 16 171 260 307 259 256 262 217 186 194 204 199 194 203 196 189 212 208 211 120 101 101 130 152 157 160
5 33 3 325 333 323 306 291 300 321 308 311 288 208 322 316 317 33 318 314 229 253 255 287 238 227 255 328 285 240 199 195 200 214 223 185 221 234 152 70 41 88 164 163 165
342 341 347 292 287 317 309 300 309 307 298 305 291 320 316 303 295 297 313 296 247 221 335 333 255 245 253 230 239 237 202 199 201 209 221 220 233 235 272 280 273 254 197 182 174
184 249 250 286 325 312 323 323 311 308 271 283 305 301 299 319 325 307 294 280 274 287 306 310 307 244 231 200 204 222 201 201 203 218 222 219 221 235 231 247 297 19 245 210 181